Pagrindinis puslapis
METAR-TAF:

METAR-TAF

Oro uostai :

Frederick, Oklahoma, Jungtinės Amerikos Valstijos

platuma: 34-20-40N, ilguma: 098-58-59W, Aukštis: 382 m

Dabartinis oras

Ataskaita buvo paskelbta 25 minutes, ne 09:53 UTC
Vėjas 3 kt iš Šiaurės
Temperatūra 12°C
Drėgmė 47%
Slėgis 1020 hPa
Matomumas: 16.1 km
Giedras dangus

METAR: KFDR 020953Z AUTO 36003KT 10SM CLR 12/01 A3011 RMK AO2 SLP184 T01170006

Laikas: 05:18 (10:18 UTC)


TAF: trūkstamas

Orai ataskaitas ir orų prognozės (METAR, TAF).

turimą stotys yra geltonos ir raudonos taškus žemėlapyje.

Perkelti pele per norėdami pamatyti stoties vardą.

Tada spustelėkite, norėdami matyti oro stebėjimo ir prognozės.

Norėdami pakeisti žemėlapį: spustelėkite ant žalios mygtukų su juodo kryžiaus žemyn,; žalią mygtuką su brūkšneliu, jei norite nutolinti; arba žalių rodyklių gretimoms žemėlapius.


METAR-TAF: